Temperature
15 15 16 16 16 16 16 17 17 17 17 17 16 16 17 17 16 17 17 16 16 16 16 16 16 16 16 16 16 16 16 16 16 16 15 15 15 15 15 15 14 14 15
15 15 16 16 16 16 16 16 16 16 16 16 16 16 16 16 16 16 16 16 16 16 16 16 16 16 16 16 16 16 16 16 16 16 15 15 15 15 15 15 15 14 15
15 15 16 16 16 16 16 16 16 16 16 16 16 16 16 16 16 16 16 16 16 16 16 16 16 16 16 16 16 16 16 16 16 15 15 14 14 15 15 15 15 15 14
15 15 15 15 16 16 16 16 16 16 16 16 16 16 16 16 16 16 16 16 16 16 16 16 16 16 16 16 16 16 16 16 15 15 14 13 13 14 14 14 14 14 14
15 15 15 15 15 15 16 16 16 16 16 16 16 16 16 16 16 16 16 16 16 16 16 16 16 16 16 16 16 16 16 15 15 14 13 13 13 14 14 14 14 14 14
14 15 15 15 15 15 15 15 15 15 15 15 15 16 16 16 16 16 16 16 16 16 16 16 16 16 16 16 16 16 15 15 15 14 14 13 13 14 14 14 14 14 13
14 14 15 15 15 15 15 15 15 15 15 15 15 15 16 16 16 16 16 16 16 16 16 16 16 15 15 15 15 15 15 15 14 14 14 14 14 14 14 14 14 14 14
14 14 15 15 15 15 15 15 15 15 15 15 15 15 15 15 15 16 15 15 15 15 15 16 15 15 15 15 15 15 15 15 14 14 14 14 14 14 14 14 14 13 13
14 14 14 14 14 15 15 15 15 15 15 15 15 15 15 15 15 15 15 15 15 15 15 15 15 15 15 15 15 15 15 15 14 14 14 14 14 14 14 14 14 13 14
13 14 14 14 14 14 14 15 15 15 15 15 15 15 15 15 15 15 15 15 15 15 15 15 15 15 15 15 15 15 15 15 14 14 14 14 14 14 14 14 14 14 14
13 13 13 13 14 14 14 14 14 15 15 15 15 15 15 15 15 15 15 15 15 15 15 15 15 15 15 15 15 15 14 14 14 13 14 14 14 14 14 14 14 14 14
12 13 13 13 13 13 13 14 14 14 14 14 14 14 15 14 14 14 14 15 15 15 15 14 14 14 14 14 14 14 14 14 13 13 14 14 14 14 14 14 14 14 14
12 12 12 12 12 13 13 13 13 13 14 14 14 14 14 14 14 14 14 14 14 14 14 14 14 14 14 14 14 14 14 13 13 13 14 14 14 14 14 14 14 14 14
11 12 12 12 12 12 12 12 13 13 13 13 14 14 14 14 14 14 14 14 14 14 14 14 14 14 14 14 14 14 14 14 14 13 14 14 14 14 14 14 14 14 14
11 11 11 12 12 12 12 12 12 12 12 13 13 13 13 13 13 14 14 14 14 14 14 14 14 13 13 13 13 13 13 13 13 13 14 14 14 14 14 14 14 14 14
11 11 11 11 11 11 11 11 12 12 12 12 12 13 13 13 13 13 13 13 13 13 13 13 13 13 13 13 13 13 13 13 13 13 13 14 14 14 14 14 13 13 13
10 10 10 11 11 11 11 11 11 11 11 11 12 12 12 12 12 12 12 12 13 13 13 13 13 13 13 13 13 13 13 13 13 13 13 13 13 14 13 13 13 13 13
10 10 10 10 10 10 11 11 11 11 11 11 11 11 11 11 12 12 12 12 12 12 12 13 13 12 12 13 13 12 12 13 13 13 13 13 13 13 13 13 13 13 13
9 10 10 10 10 10 10 10 10 10 10 10 11 11 11 11 11 11 11 11 12 12 12 12 12 12 12 12 12 12 12 12 12 12 12 12 13 13 13 13 13 13 13
9 9 9 9 9 10 10 10 10 10 10 10 10 10 10 11 11 11 11 11 11 11 11 12 12 12 12 12 12 12 12 12 12 12 12 12 12 13 13 13 13 13 13
9 9 9 9 9 9 9 9 9 9 9 9 9 10 10 10 10 10 10 11 11 11 11 11 11 11 11 11 11 11 12 12 12 12 12 12 12 12 12 12 12 12 12
8 8 8 8 8 8 8 8 8 8 9 9 9 9 9 9 10 10 10 10 10 10 10 11 11 11 11 11 11 11 11 11 11 12 12 12 12 12 12 12 12 12 12
8 8 8 8 8 8 8 8 8 8 8 8 8 9 9 9 9 9 10 10 10 10 10 10 10 10 10 11 11 11 11 11 11 11 11 12 12 12 12 11 11 11 12
8 7 7 7 7 7 7 7 7 7 7 8 8 8 8 8 8 9 9 9 9 9 9 10 10 10 10 10 10 10 10 11 10 10 11 11 11 11 11 11 11 11 11
7 7 7 7 7 7 7 7 7 7 7 7 7 7 8 8 8 8 8 8 9 9 9 9 9 9 9 9 10 10 10 10 10 10 10 10 10 11 11 11 11 11 11
7 7 7 6 6 6 6 6 6 6 6 7 7 7 7 7 7 7 7 8 8 8 8 8 8 9 9 9 9 9 9 9 9 9 10 10 10 10 10 10 10 10 10
Wind_Speed
2 3 4 3 6 8 8 8 8 8 8 8 9 10 9 9 10 10 10 10 10 11 11 11 11 11 12 12 12 12 12 12 12 13 13 13 12 12 11 9 8 12 12
2 3 5 4 5 6 7 8 8 8 8 8 8 9 9 9 9 10 10 9 9 10 10 11 11 11 12 12 12 11 12 12 12 12 12 12 11 11 10 9 8 11 11
2 3 5 5 5 5 5 6 7 8 7 7 8 8 9 9 9 9 9 9 9 9 10 10 11 12 12 11 11 11 11 11 11 10 8 9 10 10 9 9 10 11 11
3 4 5 7 5 5 5 4 5 6 6 7 7 8 8 8 9 9 9 9 9 9 9 10 11 11 11 11 11 11 11 11 10 7 6 7 9 9 9 9 9 10 10
4 4 6 7 6 5 4 3 3 4 5 6 7 7 8 8 8 9 9 9 10 9 9 10 10 12 12 11 11 11 10 10 8 6 6 6 8 9 8 8 9 9 9
4 5 7 7 6 5 5 4 2 2 2 4 5 7 8 8 8 9 9 8 9 10 10 10 11 11 12 12 11 11 11 10 9 6 6 6 7 8 7 8 8 8 8
4 5 6 8 7 5 4 3 2 1 1 2 4 5 7 9 9 9 9 9 9 10 11 11 11 11 11 11 12 11 11 10 7 6 6 6 7 8 7 7 7 7 7
5 5 5 6 6 5 5 3 2 1 1 1 3 5 7 8 10 10 9 10 10 10 11 12 12 11 12 12 12 11 11 10 7 6 6 6 7 7 7 7 7 7 7
5 5 5 4 3 4 4 4 3 2 2 2 3 3 5 8 9 10 11 11 11 11 11 12 12 12 12 12 12 12 12 10 7 6 6 6 7 7 8 7 7 7 6
6 6 5 5 4 3 3 3 3 3 3 3 3 3 4 6 9 10 12 12 12 12 12 13 13 12 12 13 13 13 12 11 9 8 7 7 8 8 8 8 8 8 7
7 6 6 6 5 5 4 3 3 3 3 4 4 4 5 7 9 10 11 12 13 13 13 13 13 13 13 13 13 13 13 10 9 7 7 7 9 9 9 9 9 9 8
6 7 6 7 6 6 5 4 4 4 4 5 5 5 6 6 7 8 9 11 13 13 14 14 14 14 13 12 13 14 11 11 9 8 7 9 10 11 10 10 9 10 9
5 6 7 7 6 6 4 4 4 4 4 5 5 6 6 6 6 6 7 9 12 13 13 13 14 13 13 11 11 12 11 10 9 8 9 11 12 12 12 11 11 11 10
5 6 7 7 6 6 6 4 4 4 4 4 5 6 5 4 5 5 5 7 8 9 10 10 10 12 13 13 12 12 12 10 9 8 8 12 13 13 13 12 12 12 12
5 6 7 7 7 6 5 4 4 4 4 5 5 5 6 5 6 6 6 6 8 8 9 9 10 11 11 12 12 12 12 12 11 10 8 12 14 13 13 13 13 13 13
5 6 6 7 7 6 5 5 5 5 5 5 5 5 6 6 6 6 6 6 7 8 9 9 10 9 9 9 11 12 12 11 11 11 10 11 14 14 13 13 13 13 14
5 6 7 6 7 7 6 6 5 5 5 4 4 5 6 6 7 7 7 7 7 8 9 9 10 9 8 8 10 10 10 11 11 11 11 10 11 14 15 14 14 14 14
5 6 6 6 7 7 6 6 5 5 5 5 5 5 6 6 7 6 6 7 8 8 8 8 8 8 8 8 9 9 8 9 11 11 11 11 10 10 13 15 15 14 14
5 5 6 7 7 7 7 6 5 5 5 4 4 4 5 6 6 6 6 6 8 7 7 7 8 8 8 9 8 8 8 8 9 10 11 11 11 10 11 13 15 15 15
4 5 6 7 7 7 6 5 5 4 4 4 4 5 6 5 5 5 5 6 7 7 7 7 8 8 7 8 7 8 8 8 8 9 10 9 10 11 11 11 12 13 16
4 5 6 7 7 6 5 5 5 5 5 4 4 5 5 5 5 5 5 6 6 7 8 8 8 8 7 7 6 6 7 8 8 8 8 8 9 10 11 11 11 11 11
4 5 6 6 7 6 6 6 5 6 5 5 4 5 5 5 5 4 5 5 6 6 7 7 7 7 6 6 5 5 5 6 7 8 8 8 9 8 9 10 11 11 11
4 5 5 6 7 7 7 5 5 5 4 4 4 4 5 5 5 5 5 5 5 6 6 7 7 8 7 6 6 5 5 6 4 6 9 8 8 8 8 9 11 11 12
4 5 5 6 6 6 6 5 6 6 6 6 5 5 5 5 5 5 5 5 5 5 6 6 7 7 7 7 6 6 5 3 4 4 6 8 9 9 9 8 9 11 12
4 4 5 5 6 6 5 6 6 6 6 5 5 5 5 4 5 5 5 5 5 5 6 6 7 7 7 7 6 5 6 5 6 6 6 6 7 7 8 8 7 8 10
3 4 4 5 5 5 6 6 6 7 7 6 6 5 4 4 4 5 5 5 5 5 5 6 6 7 7 7 7 6 6 6 6 7 7 6 6 6 7 6 7 7 8
Wind_Direction
53 33 56 104 143 149 147 142 139 136 138 143 149 147 146 149 150 150 145 142 142 139 136 133 130 127 123 119 115 112 108 106 105 103 100 97 97 99 98 97 101 93 89
29 51 76 103 133 145 150 150 148 145 145 146 152 154 153 153 157 158 154 149 147 146 142 139 137 134 128 124 121 118 115 113 110 107 110 107 103 103 101 90 77 94 94
61 74 85 88 110 130 143 151 155 156 157 158 159 160 160 162 160 162 163 157 154 149 147 145 142 139 134 132 129 126 123 121 118 122 143 121 113 109 107 103 99 101 98
59 74 77 77 86 103 117 131 149 161 168 171 171 171 170 170 170 170 171 166 163 157 153 151 148 145 142 140 138 135 130 128 130 156 141 119 119 115 115 111 107 104 101
72 71 73 75 76 79 91 117 132 155 173 178 179 180 181 181 179 178 174 174 170 165 162 157 155 153 151 149 148 145 140 140 149 170 127 126 122 122 121 115 110 108 106
65 67 71 67 70 68 69 75 110 154 173 181 187 192 192 192 192 185 179 176 175 172 170 167 164 161 159 159 158 156 152 155 174 151 143 138 131 129 130 124 118 117 114
59 54 61 53 53 50 54 57 51 80 186 202 202 204 205 204 203 197 187 182 179 178 176 176 173 169 166 167 167 164 162 174 181 155 151 143 133 139 145 140 136 128 122
55 46 51 49 43 39 37 35 26 358 329 249 228 221 215 214 211 205 199 192 188 187 185 183 180 177 176 175 174 171 170 185 188 170 165 155 144 158 158 153 148 141 134
47 38 34 27 32 33 26 19 4 342 315 292 262 242 228 221 217 213 206 202 199 197 194 190 188 186 186 183 178 175 177 193 198 182 177 168 159 175 171 165 165 159 153
38 29 21 16 9 358 354 4 356 335 308 286 277 261 242 227 221 219 214 208 204 202 201 197 194 194 192 188 182 178 179 193 205 191 191 171 172 186 180 179 179 175 169
27 18 12 7 2 352 338 331 314 299 292 268 254 248 242 232 226 220 221 211 206 204 204 202 199 199 195 191 187 182 185 205 205 202 199 170 188 196 193 191 190 187 182
12 7 4 1 355 348 340 326 306 291 279 266 260 250 244 242 237 233 218 210 209 207 206 205 202 199 202 200 191 188 204 211 209 207 199 182 201 205 202 199 199 194 193
2 0 357 352 348 344 337 327 314 299 288 272 263 253 250 243 240 234 223 212 215 212 214 207 206 207 210 209 201 203 212 212 213 211 202 191 208 211 211 208 205 203 203
0 357 354 349 345 341 332 322 311 302 295 286 273 261 253 247 244 239 234 223 219 217 217 215 214 212 214 214 213 212 212 213 216 216 206 193 210 216 217 214 211 209 210
2 357 352 347 342 337 329 319 309 301 295 292 282 269 256 249 245 241 241 235 229 225 220 220 219 217 216 217 218 218 217 217 217 218 211 198 210 217 220 219 219 216 215
358 351 347 343 339 334 326 317 309 303 295 292 285 277 262 250 250 246 242 240 237 232 229 225 222 221 220 220 222 221 221 222 222 221 222 207 209 217 221 223 224 224 220
348 343 340 338 338 333 326 317 308 300 292 288 285 282 272 259 253 248 242 239 239 234 231 231 226 223 222 219 225 228 227 225 224 224 224 222 216 216 220 225 226 228 227
339 336 335 337 336 333 327 315 306 300 293 286 283 280 277 268 260 254 247 242 241 238 231 229 226 220 219 220 223 223 228 229 228 226 225 223 222 220 217 221 226 229 229
334 333 335 336 336 331 326 316 305 298 292 287 284 281 279 273 264 257 254 253 245 239 232 229 226 222 221 221 224 225 224 227 228 226 227 226 224 223 224 215 218 226 229
331 332 334 335 335 330 324 317 310 299 293 289 286 284 282 277 268 259 257 255 248 240 235 230 228 223 225 223 225 229 228 227 227 225 225 226 225 225 226 226 222 224 226
332 332 331 333 333 332 329 324 316 311 304 293 288 284 283 279 270 258 256 254 249 238 236 235 231 226 224 220 224 231 234 231 229 226 223 225 225 225 226 227 228 227 225
323 328 327 328 326 326 322 316 302 303 301 298 292 289 288 282 272 266 255 251 249 243 238 236 233 230 227 220 221 220 230 232 229 228 223 223 227 227 227 227 228 228 230
316 321 320 320 319 320 319 313 307 302 295 294 300 298 300 293 282 273 265 260 253 245 242 238 232 233 228 223 221 220 219 228 230 222 225 224 225 226 228 227 229 231 231
310 319 320 321 320 320 319 315 313 306 299 296 298 296 300 296 291 283 272 264 256 248 248 241 234 235 231 228 223 230 237 243 229 227 221 222 226 230 232 231 231 231 232
307 318 322 323 323 324 321 316 312 306 299 295 298 298 302 305 305 302 290 278 265 255 252 245 239 234 232 233 229 227 234 238 235 236 238 231 229 231 232 233 237 235 233
312 321 323 324 327 329 325 319 312 307 301 296 297 300 304 307 309 309 299 285 274 267 259 248 240 234 234 235 236 231 227 226 224 231 238 237 239 238 236 235 234 237 238
Height
1527 1527 1527 1528 1529 1530 1531 1532 1533 1534 1534 1535 1535 1536 1536 1536 1537 1537 1538 1538 1539 1539 1539 1539 1540 1540 1540 1540 1540 1540 1540 1540 1540 1540 1539 1539 1539 1539 1540 1540 1540 1540 1539
1526 1527 1527 1528 1529 1530 1531 1532 1533 1533 1534 1535 1535 1536 1536 1537 1537 1538 1538 1539 1539 1540 1540 1540 1540 1541 1541 1541 1541 1541 1541 1541 1541 1541 1541 1541 1541 1541 1541 1541 1541 1541 1541
1526 1527 1527 1528 1529 1530 1531 1532 1533 1533 1534 1535 1535 1536 1536 1537 1537 1538 1538 1539 1539 1540 1540 1541 1541 1541 1541 1541 1542 1542 1542 1541 1542 1542 1542 1543 1542 1542 1542 1542 1542 1542 1542
1525 1526 1527 1528 1529 1530 1530 1531 1532 1533 1534 1534 1535 1536 1536 1537 1537 1538 1538 1539 1539 1540 1540 1541 1541 1541 1542 1542 1542 1542 1542 1542 1542 1543 1544 1544 1544 1543 1543 1543 1543 1543 1543
1525 1526 1527 1528 1528 1529 1530 1531 1531 1532 1533 1534 1534 1535 1536 1536 1537 1537 1538 1538 1539 1539 1540 1541 1541 1542 1542 1542 1542 1543 1543 1543 1543 1544 1544 1544 1544 1543 1543 1544 1543 1544 1544
1525 1526 1526 1527 1528 1529 1529 1530 1531 1531 1532 1532 1533 1534 1535 1535 1536 1536 1537 1538 1538 1539 1540 1540 1541 1541 1542 1542 1542 1543 1543 1543 1544 1545 1545 1545 1545 1544 1544 1544 1544 1544 1544
1524 1525 1525 1526 1527 1528 1528 1529 1529 1530 1531 1531 1532 1532 1533 1534 1535 1535 1536 1537 1537 1538 1539 1539 1540 1541 1541 1542 1542 1543 1543 1543 1545 1545 1545 1545 1545 1544 1544 1544 1545 1545 1545
1524 1524 1525 1525 1526 1526 1527 1527 1528 1528 1529 1530 1530 1531 1531 1532 1533 1534 1534 1535 1536 1537 1538 1538 1539 1540 1541 1541 1542 1542 1543 1543 1544 1545 1545 1545 1544 1544 1544 1545 1545 1545 1545
1523 1523 1524 1524 1524 1524 1525 1525 1526 1526 1527 1528 1528 1529 1529 1530 1531 1532 1533 1533 1534 1535 1536 1537 1538 1539 1540 1540 1541 1542 1542 1543 1544 1545 1544 1545 1544 1544 1544 1545 1545 1545 1545
1522 1522 1522 1522 1522 1522 1522 1523 1523 1524 1524 1525 1525 1526 1527 1528 1528 1529 1530 1531 1532 1533 1534 1535 1536 1537 1538 1539 1540 1541 1541 1542 1543 1544 1544 1544 1544 1544 1544 1544 1545 1545 1545
1521 1520 1520 1520 1520 1520 1520 1520 1521 1521 1522 1522 1522 1523 1524 1525 1526 1526 1527 1529 1530 1531 1532 1533 1534 1535 1536 1537 1538 1539 1540 1541 1542 1543 1543 1543 1543 1543 1543 1544 1544 1544 1545
1519 1519 1519 1518 1518 1518 1517 1517 1518 1518 1518 1519 1519 1520 1520 1521 1522 1523 1524 1525 1526 1528 1529 1530 1532 1533 1534 1535 1536 1537 1538 1539 1540 1540 1541 1541 1541 1542 1542 1543 1543 1544 1544
1518 1517 1517 1516 1516 1515 1515 1514 1514 1515 1515 1515 1516 1516 1517 1517 1518 1519 1520 1521 1523 1524 1525 1527 1528 1529 1531 1532 1533 1534 1535 1537 1537 1538 1538 1539 1540 1540 1541 1541 1542 1542 1543
1516 1515 1515 1514 1513 1513 1512 1511 1511 1511 1511 1511 1512 1512 1513 1513 1514 1515 1516 1517 1519 1520 1521 1523 1524 1526 1527 1529 1530 1531 1532 1533 1534 1535 1536 1536 1537 1538 1539 1539 1540 1541 1541
1514 1514 1513 1512 1511 1510 1509 1508 1508 1508 1508 1507 1508 1508 1508 1509 1510 1510 1512 1513 1515 1516 1517 1519 1520 1522 1523 1525 1526 1528 1529 1530 1531 1532 1533 1533 1534 1535 1536 1537 1538 1538 1539
1512 1512 1511 1509 1508 1507 1506 1505 1504 1504 1504 1504 1503 1504 1504 1504 1505 1506 1507 1509 1510 1511 1513 1515 1516 1518 1519 1521 1522 1524 1525 1526 1527 1528 1529 1530 1531 1532 1533 1534 1535 1536 1536
1511 1510 1508 1507 1506 1504 1503 1502 1501 1501 1500 1500 1499 1499 1500 1500 1500 1501 1502 1504 1505 1507 1509 1510 1512 1513 1515 1516 1518 1519 1521 1522 1523 1524 1525 1526 1527 1528 1529 1530 1531 1532 1533
1509 1508 1506 1505 1503 1502 1501 1499 1498 1497 1496 1496 1496 1495 1495 1495 1496 1497 1498 1499 1501 1502 1504 1505 1507 1508 1510 1511 1513 1515 1516 1517 1519 1520 1521 1522 1523 1524 1525 1526 1527 1528 1529
1508 1506 1504 1503 1501 1499 1498 1496 1494 1493 1492 1492 1492 1491 1491 1491 1492 1492 1493 1494 1496 1498 1499 1500 1502 1503 1505 1507 1508 1510 1511 1512 1514 1515 1516 1518 1519 1519 1521 1522 1523 1524 1525
1506 1504 1502 1500 1498 1496 1495 1493 1491 1490 1489 1488 1487 1487 1487 1487 1487 1488 1489 1490 1491 1492 1494 1495 1497 1498 1500 1502 1504 1505 1506 1507 1509 1509 1511 1512 1513 1514 1516 1517 1518 1519 1520
1504 1502 1500 1498 1496 1494 1492 1490 1488 1486 1485 1484 1483 1483 1482 1483 1483 1484 1484 1485 1486 1487 1489 1491 1493 1494 1495 1498 1499 1500 1501 1502 1503 1504 1505 1507 1508 1509 1510 1512 1513 1514 1514
1501 1499 1497 1495 1493 1491 1489 1487 1485 1483 1482 1481 1480 1479 1479 1479 1479 1479 1480 1481 1481 1483 1484 1486 1487 1489 1490 1492 1494 1495 1496 1498 1497 1498 1499 1501 1502 1503 1504 1506 1507 1508 1509
1499 1497 1495 1493 1491 1489 1487 1484 1482 1480 1479 1478 1477 1476 1475 1475 1475 1475 1476 1476 1477 1478 1479 1480 1482 1484 1485 1487 1489 1490 1490 1490 1492 1493 1493 1495 1496 1497 1499 1500 1501 1502 1504
1496 1495 1493 1490 1488 1486 1484 1482 1480 1478 1476 1474 1473 1472 1472 1472 1471 1471 1471 1472 1473 1474 1474 1475 1477 1478 1480 1481 1483 1484 1485 1485 1487 1487 1488 1489 1490 1491 1493 1494 1495 1496 1498
1494 1492 1490 1488 1486 1484 1482 1479 1477 1475 1473 1472 1470 1469 1469 1468 1468 1467 1468 1468 1469 1469 1470 1471 1472 1473 1475 1476 1477 1478 1479 1480 1482 1483 1483 1484 1484 1485 1487 1488 1489 1490 1491
1491 1489 1487 1486 1484 1481 1479 1477 1475 1472 1470 1469 1467 1466 1465 1464 1464 1464 1464 1464 1464 1465 1465 1466 1467 1468 1469 1470 1472 1473 1474 1475 1476 1478 1478 1478 1478 1479 1480 1481 1482 1484 1485